Погода в Новой Слободе

Россия / Ульяновская область     53°56′30″N   48°46′24″E
темп.,
°C
ветер,
м/с
пор.,
м/с
влажн.,
%
обл.,
%
осадки,
мм/ч
давл.,
гПа
погр.,
м
20 мая, пт
пт2001:00+5зюз337924 0.0 101166
04:00+5з348397 0.0 1010112
07:00+7сз357893 0.1 1010287
10:00+9сз456686 0.2 1011889
13:00+10сз566098 0.2 10101229
16:00+9ссз786195 0.5 10091236
19:00+8ссз696386 0.1 10091116
22:00+5ссз711725 0.1 1010704
21 мая, сб
сб2101:00+4сз611805 0.0 1009528
04:00+4сз711854 0.0 1008473
07:00+4сз8118338 0.0 1009648
10:00+6ссз8106984 0.1 10091353
13:00+7ссз8106593 0.3 10081444
16:00+8ссз8106278 0.6 10081522
19:00+7ссз587177 0.3 10081009
22:00+5ссз2376100 0.3 1008152
22 мая, вс
вс2201:00+4з128289 0.1 100678
04:00+4з3482100 0.1 1006231
07:00+5зсз458012 0.1 1004530
10:00+7сз456392 0.2 10031167
13:00+8сз345387 0.1 10021302
16:00+9ссз235383 0.1 1001986
19:00+8вюв0158100 0.0 1000297
22:00+6ссв2574100 0.0 999145
23 мая, пн
пн2301:00+5с2276100 0.0 99890
04:00+4ссз3682100 0.0 998205
07:00+5ссз46725 0.0 999558
10:00+7сз566029 0.0 9991181
13:00+8зсз6759100 0.0 10001406
16:00+8з5762100 0.1 10011353
19:00+8з576945 0.3 1002891
22:00+5зюз510815 0.3 1003344
24 мая, вт
вт2401:00+4зюз5118462 0.0 1003392
04:00+4зюз5108758 0.0 1003250
07:00+6з597698 0.0 1004636
10:00+8зсз6959100 0.0 10051530
13:00+7зсз5768100 0.1 10061247
16:00+8сз4672100 0.4 1007978
19:00+7з467982 0.1 1008675
22:00+4зсз46858 0.1 1009277